Regional Weather Roundup
Issued by NWS

Home | Current Version | Previous Version | Graphics & Text | Print | Product List | Glossary On
Versions: 1 2 3 4 5 6 7 8 9 10 11 12 13 14 15 16 17 18 19 20 21 22 23 24 25 26 27 28 29 30 31 32 33 34 35 36 37 38 39 40 41 42 43 44 45 46 47 48 49 50
000
ASUS43 KBIS 300110
RWRND

NORTH DAKOTA REGIONAL WEATHER ROUNDUP
NATIONAL WEATHER SERVICE BISMARCK ND
800 PM CDT SAT APR 29 2017

NOTE: "FAIR" INDICATES FEW OR NO CLOUDS BELOW 12,000 FEET WITH NO
SIGNIFICANT WEATHER AND/OR OBSTRUCTIONS TO VISIBILITY.


NDZ001>003-009>011-017-300200-
NORTHWEST NORTH DAKOTA

CITY           SKY/WX    TMP DP  RH WIND       PRES   REMARKS
WILLISTON      CLOUDY    59  32  36 S6        30.14S
MINOT          FAIR      62  26  25 S9        30.14S
MINOT AFB      MOCLDY    59  31  34 W7        30.13S
$$

NDZ018>021-031>035-040>046-300200-
SOUTHWEST NORTH DAKOTA

CITY           SKY/WX    TMP DP  RH WIND       PRES   REMARKS
BISMARCK       FAIR      60  22  23 S5        30.18F
DICKINSON      CLOUDY    57  18  21 S6        30.14S
GARRISON         N/A     60  22  23 S7        30.15F
HETTINGER ARPT CLEAR     54  20  26 S6        30.17F
$$

NDZ004>008-012>016-024-026-027-054-300200-
NORTHEAST NORTH DAKOTA

CITY           SKY/WX    TMP DP  RH WIND       PRES   REMARKS
GRAND FORKS    PTCLDY    60  24  25 CALM      30.21F
GRND FRKS AFB  CLEAR     56  23  27 SE7       30.22F
DEVILS LAKE    FAIR      55  26  32 SE7       30.19F
$$

NDZ022-023-025-028>030-036>039-047>053-300200-
SOUTHEAST NORTH DAKOTA

CITY           SKY/WX    TMP DP  RH WIND       PRES   REMARKS
FARGO          CLEAR     56  22  26 NE7       30.21R
JAMESTOWN      FAIR      54  25  32 E6        30.19S
$$





USA.gov is the U.S. government's official web portal to all federal, state and local government web resources and services.